This is the latest recevied weather packets stored in our database for station/object VA7IS. If no packets are shown the sender has not sent any weather packets the latest 10 day(s).
| Time | Temp. | Humidity | Pressure | Rain* | Wind** | Luminosity | Snow |
|---|---|---|---|---|---|---|---|
| 1777386004 | 10° C | 1% | 1019.6 hPa | 0 mm | - | - | - |
| 1777380904 | 10° C | 1% | 1018.5 hPa | 0 mm | - | - | - |
| 1777378804 | 10.56° C | 1% | 1018.4 hPa | 0 mm | - | - | - |
| 1777376404 | 10.56° C | 1% | 1018.2 hPa | 0 mm | - | - | - |
| 1777375204 | 10.56° C | 1% | 1018.1 hPa | 0 mm | - | - | - |
| 1777369203 | 11.67° C | 1% | 1017.4 hPa | 0 mm | - | - | - |
| 1777368605 | 11.67° C | 1% | 1017.3 hPa | 0 mm | - | - | - |
| 1777368304 | 11.67° C | 1% | 1017.2 hPa | 0 mm | - | - | - |
| 1777367705 | 11.67° C | 1% | 1017.3 hPa | 0 mm | - | - | - |
| 1777366805 | 11.11° C | 11% | 1017.2 hPa | 0 mm | - | - | - |
| 1777366504 | 11.11° C | 14% | 1017.2 hPa | 0 mm | - | - | - |
| 1777365304 | 11.11° C | 18% | 1017.3 hPa | 0 mm | - | - | - |
| 1777364703 | 11.11° C | 13% | 1017.3 hPa | 0 mm | - | - | - |
| 1777364404 | 11.11° C | 10% | 1017.3 hPa | 0 mm | - | - | - |
| 1777364104 | 11.11° C | 8% | 1017.3 hPa | 0 mm | - | - | - |
| 1777360804 | 11.67° C | 1% | 1017 hPa | 0 mm | - | - | - |
| 1777358404 | 11.67° C | 2% | 1016.8 hPa | 0 mm | - | - | - |
| 1777355104 | 11.67° C | 20% | 1016.6 hPa | 0 mm | - | - | - |
| 1777354804 | 11.67° C | 22% | 1016.6 hPa | 0 mm | - | - | - |
| 1777353604 | 11.67° C | 26% | 1016.5 hPa | 0 mm | - | - | - |
| 1777350604 | 12.22° C | 31% | 1016.3 hPa | 0 mm | - | - | - |
| 1777347304 | 12.78° C | 41% | 1015.7 hPa | 0 mm | - | - | - |
| 1777346704 | 12.78° C | 47% | 1015.5 hPa | 0 mm | - | - | - |
| 1777345204 | 13.33° C | 52% | 1015.4 hPa | 0 mm | - | - | - |
| 1777343405 | 13.89° C | 55% | 1015.3 hPa | 0 mm | - | - | - |
* Rain latest hour (hover to see other rain measurements)
** Current wind speed in m/s (hover to see current wind gust speed)